Location: Chuathbaluk
(61.5726°N, 159.2454°W)
Time: 13:41:32
(UTC+00:00)

ITAMSAT 1 - Pass Details

Date: 20 January 2021
Orbit: 784 x 796 km, 98.9° (Epoch: 01 March)

Event Time Altitude Azimuth Distance (km) Brightness Sun altitude
Rises 04:57:23 0° 193° (SSW) 3,276 11.1 -18.7°
Reaches altitude 10° 04:59:56 10° 203° (SSW) 2,349 10.5 -19.0°
Maximum altitude 05:04:33 32° 266° (W) 1,334 9.5 -19.5°
Drops below altitude 10° 05:09:12 10° 329° (NNW) 2,359 10.4 -20.1°
Sets 05:11:47 0° 340° (NNW) 3,292 11.1 -20.4°
